Find OneWeb SL0572

NORAD ID: 55151 Int'l Des: 2023-004 Owner: ONEWEBN Country: UK Constellation: oneweb operational
LEOCIRCULARPOLARONEWEB_TYPE

リアルタイム位置

3D地球を読み込み中...

OneWeb SL0572について

説明を読み込み中...

次回通過

Passes for default location (London). Set your location on the main map for personalized predictions.

高度履歴

Loading altitude history...

軌道要素

1 55151U 23004M 26127.21006447 .00000043 00000-0 76689-4 0 9995
2 55151 87.9171 14.0110 0001590 79.7524 280.3787 13.17649228162083
Epoch: May 7, 2026 • Age: 8 hours

現在のステータス

高度 1205.4 km
速度 7.26 km/s
衛星直下点 74.51°N, 34.55°W
打ち上げ日 Jan 10, 2023
運用期間 3.3 years
タイプ internet

技術仕様

分類 Payload
質量 148.00 kg
乾燥質量 140.00 kg
総質量 148.00 kg
長さ 1.30 m
直径 1.00 m
スパン 5.00 m
形状 Trapezoid+2 pan
製造者 ONEWUS
バスタイプ ARROW
フェーズステータス In Orbit
所有者/国 ONEWEBN/UK

Most Searched